Location: Unspecified
(0.0000°N, 0.0000°E)
Time: 10:11:23
(UTC+00:00)

deb Explorer IX - Pass Details

Date: 13 December 2018
Orbit: 538 x 1115 km, 38.8° (Epoch: 17 January)

Event Time Altitude Azimuth Distance (km) Brightness Sun altitude
Rises 14:49:17 0° 222° (SW) 3,466 ? 41.6°
Reaches altitude 10° 14:52:05 10° 218° (SW) 2,426 ? 41.0°
Maximum altitude 14:57:38 55° 140° (SE) 867 ? 39.8°
Drops below altitude 10° 15:02:19 10° 62° (ENE) 2,051 ? 38.8°
Sets 15:04:31 0° 58° (ENE) 2,887 ? 38.3°
